Location: Rioux
(40.7500°S, 175.7500°E)
Time: 11:14:11
(UTC+00:00)

USA 229 - Pass Details

Date: 12 June 2024
Orbit: 886 x 1325 km, 63.4° (Epoch: 20 July)

Event Time Altitude Azimuth Distance (km) Brightness Sun altitude
Exits shadow 16:51:51 78° 44° (NE) 974 3.4 -30.7°
Drops below altitude 10° 16:57:23 10° 34° (NNE) 2,584 6.2 -29.6°
Sets 16:59:48 0° 33° (NNE) 3,497 6.9 -29.2°
